Weather History for Arcata, CA

Change the Weather History Date:

Tuesday, May 6, 2014

  Actual Average Record
Temperature  
Mean Temperature 52 °F -  
Max Temperature 61 °F 56 °F 73 °F (2007)
Min Temperature 43 °F 41 °F 37 °F (2001)
Degree Days  
Heating Degree Days 14    
Growing Degree Days 2 (Base 50)    
Moisture  
Dew Point 45 °F    
Average Humidity 72    
Maximum Humidity 93    
Minimum Humidity 57    
Precipitation  
Precipitation 0.00 in - - ()
Sea Level Pressure  
Sea Level Pressure 30.08 in    
Wind  
Wind Speed 10 mph (NNW)    
Max Wind Speed 24 mph    
Max Gust Speed 32 mph    
Visibility 10 miles    
Events Rain    
Averages and records for this station are not official NWS values.
T = Trace of Precipitation, MM = Missing Value Source: NWS Daily Summary

Daily Weather History Graph

Daily Weather History Graph

Search for Another Location

Airport:

Trip Planner

Search our weather history database for the weather conditions in past years. The results will help you decide how hot, cold, wet, or windy it might be!

Date:

Astronomy

May. 06, 2014 Rise Set
Actual Time 6:08 AM PDT 8:18 PM PDT
Civil Twilight 5:37 AM PDT 8:48 PM PDT
Nautical Twilight 5:00 AM PDT 9:26 PM PDT
Astronomical Twilight 4:19 AM PDT 10:07 PM PDT
Moon 12:30 PM PDT (5/6) 1:40 AM PDT (5/6)
Length of Visible Light 15h 11m
Length of Day
14h 10m
Waxing Crescent, 47% of the Moon is Illuminated
May 6
Waxing Crescent
May 6
First Quarter
May 14
Full
May 21
Last Quarter
May 28
New

Hourly Weather History & Observations

Time (PDT) Temp. Windchill Dew Point Humidity Pressure Visibility Wind Dir Wind Speed Gust Speed Precip Events Conditions
12:49 AM 46.4 °F - 44.6 °F 93% 30.08 in 10.0 mi Calm Calm - N/A   Mostly Cloudy
4:53 AM 46.0 °F 44.8 °F 43.0 °F 89% 30.08 in 10.0 mi NNE 3.5 mph - N/A   Clear
5:53 AM 43.0 °F - 39.0 °F 86% 30.08 in 10.0 mi Calm Calm - N/A   Clear
7:53 AM 51.1 °F - 43.0 °F 74% 30.08 in 10.0 mi Calm Calm - N/A   Clear
8:53 AM 55.9 °F - 44.1 °F 64% 30.07 in 10.0 mi NNW 9.2 mph - N/A   Clear
9:53 AM 57.0 °F - 42.1 °F 57% 30.07 in 10.0 mi NNW 15.0 mph - N/A   Clear
10:53 AM 57.9 °F - 46.9 °F 67% 30.07 in 10.0 mi NNW 16.1 mph - 0.00 in Rain Light Rain
11:53 AM 59.0 °F - 48.9 °F 69% 30.08 in 10.0 mi NNW 18.4 mph - 0.00 in   Clear
12:53 PM 60.1 °F - 50.0 °F 69% 30.07 in 10.0 mi NNW 24.2 mph 32.2 mph N/A   Partly Cloudy
1:35 PM 59.0 °F - 50.0 °F 72% 30.07 in 10.0 mi NNW 21.9 mph 27.6 mph N/A   Mostly Cloudy
1:50 PM 59.0 °F - 48.2 °F 67% 30.07 in 10.0 mi North 18.4 mph 28.8 mph N/A   Mostly Cloudy
1:53 PM 60.1 °F - 48.9 °F 67% 30.09 in 10.0 mi NNW 20.7 mph 28.8 mph N/A   Mostly Cloudy
2:16 PM 60.1 °F - 48.0 °F 64% 30.07 in 10.0 mi North 18.4 mph 28.8 mph N/A   Mostly Cloudy
2:53 PM 57.9 °F - 46.9 °F 67% 30.10 in 10.0 mi NNW 21.9 mph 28.8 mph N/A   Mostly Cloudy
3:53 PM 59.0 °F - 46.0 °F 62% 30.09 in 10.0 mi North 19.6 mph 26.5 mph N/A   Overcast
4:53 PM 59.0 °F - 46.0 °F 62% 30.08 in 10.0 mi NNW 18.4 mph - N/A   Mostly Cloudy
5:53 PM 57.0 °F - 46.0 °F 67% 30.08 in 10.0 mi NNW 18.4 mph 26.5 mph N/A   Clear
6:53 PM 55.9 °F - 45.0 °F 67% 30.07 in 10.0 mi NNW 12.7 mph - N/A   Partly Cloudy
7:53 PM 53.1 °F - 44.1 °F 71% 30.07 in 10.0 mi NNW 10.4 mph - N/A   Partly Cloudy
8:33 PM 52.0 °F - 45.0 °F 77% 30.05 in 10.0 mi NW 8.1 mph - N/A   Mostly Cloudy
8:48 PM 51.8 °F - 44.6 °F 76% 30.06 in 10.0 mi North 8.1 mph - N/A   Scattered Clouds
8:53 PM 52.0 °F - 44.1 °F 74% 30.08 in 10.0 mi North 9.2 mph - N/A   Scattered Clouds
9:53 PM 50.0 °F - 43.0 °F 77% 30.09 in 10.0 mi North 6.9 mph - N/A   Clear
10:53 PM 51.1 °F - 43.0 °F 74% 30.10 in 10.0 mi North 8.1 mph - N/A   Scattered Clouds
11:14 PM 51.1 °F - 43.0 °F 74% 30.08 in 10.0 mi North 8.1 mph - N/A   Mostly Cloudy
11:37 PM 51.1 °F - 43.0 °F 74% 30.08 in 10.0 mi North 6.9 mph - N/A   Mostly Cloudy
11:53 PM 52.0 °F - 44.1 °F 74% 30.09 in 10.0 mi North 6.9 mph - N/A   Mostly Cloudy